Location: Newark
(13.6797°N, 8.5297°E)
Time: 06:12:30
(UTC+00:00)

A-11 Canister half - Visible Passes

Search period start: 22 January 2020 00:00
Search period end: 01 February 2020 00:00
Orbit: 1525 x 1684 km, 47.3° (Epoch: 21 January)

Date Brightness Start Highest point End Pass type
(mag) Time Alt. Az. Time Alt. Az. Time Alt. Az.
22 Jan 10.2 02:24:15 33° SSE 02:24:15 33° SSE 02:29:00 10° SE visible
22 Jan 10.5 04:22:35 14° WSW 04:23:35 14° SW 04:28:28 10° SSW visible
23 Jan 10.6 02:04:14 24° SE 02:04:14 24° SE 02:07:22 10° SE visible
23 Jan 10.5 04:02:33 16° SW 04:02:33 16° SW 04:07:28 10° SSW visible
24 Jan 11.0 01:44:08 16° SE 01:44:08 16° SE 01:45:44 10° SE visible
24 Jan 10.6 03:42:28 16° SW 03:42:28 16° SW 03:46:21 10° SSW visible
25 Jan 11.3 01:24:01 10° SE 01:24:01 10° SE 01:24:03 10° SE visible
25 Jan 10.7 03:22:20 16° SSW 03:22:20 16° SSW 03:25:10 10° SSW visible
26 Jan 10.9 03:02:10 14° SSW 03:02:10 14° SSW 03:03:56 10° S visible
27 Jan 11.0 02:41:56 12° S 02:41:56 12° S 02:42:39 10° S visible
